Kosmos-2485

operational
NORAD ID: 39155 Int'l Des: 2013-019 Owner: VVKO/IACG Country: RU Constellation: GLONASS
MEOCIRCULAR

Über Kosmos-2485

Beschreibung wird geladen...

Live-Position

3D-Globus wird geladen...

Nächste Überflüge

Höhenverlauf

Altitude vs Time

uPlot chart will show altitude changes over time

Zweizeiliger Elementsatz

1 39155U 13019A 26034.17129903 .00000005 00000-0 00000-0 0 9999
2 39155 65.3418 78.1036 0025520 234.7744 125.0639 2.13102889 99426
Epoch: 3. Feb. 2026 • Age: 14 hours

Aktueller Status

Höhe 19197.2 km
Geschwindigkeit 3.95 km/s
Subsatellitenpunkt 64.73°N, 110.15°E
Startdatum 26. Apr. 2013
Alter 12.7 years
Typ other

Technische Details

Klassifizierung Payload
Masse 1450.00 kg
Trockenmasse 1200.00 kg
Gesamtmasse 1450.00 kg
Länge 4.00 m
Durchmesser 1.50 m
Spannweite 7.80 m
Form Cyl + Ant + 2 Pan
Hersteller RESH
Bus-Typ Uragan
Phasenstatus In Orbit
Besitzer/Staat VVKO/IACG/RU

Große Konstellationen

Loading constellations...